Weather History for KEIK - February, 2014

Change the Weather History Date:

Wednesday, February 5, 2014

  Actual Average (KBJC) Record (KBJC)
Temperature  
Mean Temperature -8 °F -  
Max Temperature 1 °F 42 °F 68 °F (2009)
Min Temperature -17 °F 23 °F -13 °F (1985)
Degree Days  
Heating Degree Days 73    
Moisture  
Dew Point -12 °F    
Average Humidity 81    
Maximum Humidity 87    
Minimum Humidity 75    
Precipitation  
Precipitation 0.00 in - - ()
Sea Level Pressure  
Sea Level Pressure 30.28 in    
Wind  
Wind Speed 1 mph (ENE)    
Max Wind Speed 8 mph    
Max Gust Speed -    
Visibility 8 miles    
Events Snow    
Averages and records for this station are not official NWS values.
T = Trace of Precipitation, MM = Missing Value Source: NWS Daily Summary

Daily Weather History Graph

Daily Weather History Graph

Search for Another Location

Airport or City:

Trip Planner

Search our weather history database for the weather conditions in past years. The results will help you decide how hot, cold, wet, or windy it might be!

Date:

Astronomy

Feb. 05, 2014 Rise Set
Actual Time 7:04 AM MST 5:24 PM MST
Civil Twilight 6:36 AM MST 5:52 PM MST
Nautical Twilight 6:04 AM MST 6:24 PM MST
Astronomical Twilight 5:32 AM MST 6:56 PM MST
Moon 10:21 AM MST (2/5) No Moon Set
Length of Visible Light 11h 16m
Length of Day
10h 19m
Waxing Crescent, 40% of the Moon is Illuminated
Feb 5
Waxing Crescent
Feb 6
First Quarter
Feb 14
Full
Feb 22
Last Quarter
Mar 1
New

Hourly Weather History & Observations

Time (MST) Temp. Windchill Dew Point Humidity Pressure Visibility Wind Dir Wind Speed Gust Speed Precip Events Conditions
12:14 AM -8.7 °F - -13.0 °F 81% 30.28 in 4.0 mi Calm Calm - N/A Snow Light Snow
12:34 AM -9.6 °F -18.8 °F -14.3 °F 80% 30.28 in 5.0 mi SW 3.5 mph - N/A Snow Light Snow
12:54 AM -9.6 °F - -13.9 °F 81% 30.28 in 5.0 mi Calm Calm - N/A   Mostly Cloudy
1:14 AM -10.3 °F - -15.0 °F 80% 30.28 in 7.0 mi Calm Calm - N/A   Mostly Cloudy
1:34 AM -11.0 °F - -15.3 °F 81% 30.29 in 10.0 mi Calm Calm - N/A   Scattered Clouds
1:54 AM -11.6 °F - -16.2 °F 80% 30.29 in 10.0 mi Calm Calm - N/A   Clear
2:14 AM -12.5 °F - -16.8 °F 81% 30.29 in 2.0 mi Calm Calm - N/A   Clear
2:34 AM -13.0 °F - -17.5 °F 80% 30.29 in 2.5 mi Calm Calm - N/A   Haze
2:54 AM -13.4 °F - -18.4 °F 78% 30.29 in 3.0 mi Calm Calm - N/A   Mist
3:14 AM -15.5 °F - -20.6 °F 78% 30.29 in 7.0 mi Calm Calm - N/A   Clear
3:34 AM -15.0 °F - -20.0 °F 78% 30.28 in 5.0 mi Calm Calm - N/A   Haze
3:54 AM -15.3 °F - -20.4 °F 78% 30.29 in 7.0 mi Calm Calm - N/A   Clear
4:14 AM -15.7 °F - -20.7 °F 78% 30.29 in 10.0 mi Calm Calm - N/A   Clear
4:34 AM -16.6 °F - -21.8 °F 77% 30.30 in 4.0 mi Calm Calm - N/A   Haze
4:54 AM -17.1 °F - -22.2 °F 78% 30.30 in 5.0 mi Calm Calm - N/A   Haze
5:14 AM -17.1 °F - -22.4 °F 77% 30.29 in 3.0 mi Calm Calm - N/A   Haze
5:34 AM -17.5 °F - -22.7 °F 77% 30.30 in 10.0 mi Calm Calm - N/A   Clear
5:54 AM -16.1 °F - -21.3 °F 77% 30.31 in 3.0 mi Calm Calm - N/A   Haze
6:14 AM -17.3 °F - -22.7 °F 76% 30.31 in 5.0 mi Calm Calm - N/A   Haze
6:34 AM -17.5 °F - -22.9 °F 76% 30.31 in 7.0 mi Calm Calm - N/A   Scattered Clouds
6:54 AM -17.0 °F - -22.0 °F 78% 30.31 in 7.0 mi Calm Calm - N/A   Scattered Clouds
7:14 AM -16.1 °F - -21.1 °F 78% 30.32 in 10.0 mi Calm Calm - N/A   Mostly Cloudy
7:34 AM -15.3 °F - -20.4 °F 78% 30.32 in 10.0 mi Calm Calm - N/A   Overcast
7:54 AM -13.2 °F - -17.5 °F 81% 30.32 in 10.0 mi Calm Calm - N/A   Mostly Cloudy
8:14 AM -12.1 °F - -16.2 °F 82% 30.33 in 10.0 mi Calm Calm - N/A   Scattered Clouds
8:34 AM -10.7 °F - -15.2 °F 80% 30.33 in 10.0 mi Calm Calm - N/A   Clear
8:54 AM -8.5 °F - -12.5 °F 83% 30.33 in 10.0 mi Calm Calm - N/A   Clear
9:14 AM -7.6 °F - -11.6 °F 83% 30.32 in 10.0 mi Calm Calm - N/A   Clear
9:34 AM -5.8 °F - -9.9 °F 82% 30.32 in 5.0 mi Calm Calm - N/A   Clear
9:54 AM -4.2 °F - -7.8 °F 84% 30.32 in 7.0 mi Calm Calm - N/A   Clear
10:14 AM -2.7 °F - -6.2 °F 85% 30.32 in 4.0 mi Calm Calm - N/A   Clear
10:34 AM -0.2 °F -10.1 °F -3.3 °F 87% 30.32 in 7.0 mi East 4.6 mph - N/A   Clear
10:54 AM 0.1 °F -9.7 °F -2.9 °F 87% 30.31 in 10.0 mi ESE 4.6 mph - N/A   Clear
11:14 AM 0.9 °F -8.9 °F -2.4 °F 86% 30.30 in 10.0 mi ESE 4.6 mph - N/A   Clear
11:34 AM 1.4 °F -8.3 °F -1.8 °F 86% 30.29 in 10.0 mi ESE 4.6 mph - N/A   Clear
11:54 AM 1.0 °F -8.7 °F -2.2 °F 86% 30.28 in 10.0 mi ENE 4.6 mph - N/A   Clear
12:14 PM 0.1 °F -9.7 °F -3.1 °F 86% 30.27 in 10.0 mi ENE 4.6 mph - N/A   Clear
12:34 PM -0.4 °F -12.0 °F -3.5 °F 87% 30.26 in 10.0 mi ENE 5.8 mph - N/A   Clear
12:54 PM -0.0 °F -9.9 °F -3.5 °F 85% 30.25 in 10.0 mi ENE 4.6 mph - N/A   Clear
1:14 PM -0.4 °F -12.0 °F -4.0 °F 85% 30.25 in 10.0 mi NE 5.8 mph - N/A   Clear
1:34 PM -0.4 °F -13.4 °F -4.4 °F 83% 30.25 in 10.0 mi ENE 6.9 mph - N/A   Clear
1:54 PM 0.1 °F -12.8 °F -4.5 °F 81% 30.25 in 10.0 mi ENE 6.9 mph - N/A   Scattered Clouds
2:14 PM 0.3 °F -11.2 °F -5.3 °F 77% 30.25 in 10.0 mi NE 5.8 mph - N/A   Scattered Clouds
2:34 PM -1.3 °F -14.5 °F -6.7 °F 78% 30.25 in 10.0 mi ENE 6.9 mph - N/A   Scattered Clouds
2:54 PM -0.9 °F -14.1 °F -6.9 °F 76% 30.26 in 10.0 mi NE 6.9 mph - N/A   Clear
3:14 PM -1.3 °F -15.7 °F -7.6 °F 75% 30.26 in 10.0 mi NE 8.1 mph - N/A   Scattered Clouds
3:34 PM -2.2 °F -16.8 °F -8.0 °F 76% 30.26 in 10.0 mi NNE 8.1 mph - N/A   Mostly Cloudy
3:54 PM -2.4 °F -15.8 °F -8.0 °F 77% 30.26 in 7.0 mi NE 6.9 mph - N/A   Mostly Cloudy
4:14 PM -3.1 °F -16.7 °F -8.7 °F 77% 30.26 in 7.0 mi NE 6.9 mph - N/A   Scattered Clouds
4:34 PM -4.0 °F -14.6 °F -9.4 °F 78% 30.27 in 10.0 mi NE 4.6 mph - N/A   Clear
4:54 PM -4.2 °F -12.6 °F -9.4 °F 78% 30.27 in 10.0 mi East 3.5 mph - N/A   Clear
5:14 PM -5.4 °F -14.1 °F -10.3 °F 80% 30.27 in 10.0 mi ENE 3.5 mph - N/A   Clear
5:34 PM -5.8 °F - -10.3 °F 81% 30.28 in 10.0 mi Calm Calm - N/A   Scattered Clouds
5:54 PM -6.7 °F - -10.7 °F 83% 30.27 in 10.0 mi Calm Calm - N/A   Overcast
6:14 PM -6.7 °F - -10.7 °F 83% 30.27 in 10.0 mi Calm Calm - N/A   Mostly Cloudy
6:34 PM -6.3 °F - -10.3 °F 83% 30.27 in 10.0 mi Calm Calm - N/A   Scattered Clouds
6:54 PM -6.7 °F - -10.5 °F 84% 30.27 in 10.0 mi Calm Calm - N/A   Clear
7:14 PM -7.2 °F - -11.2 °F 83% 30.26 in 10.0 mi Calm Calm - N/A   Clear
7:34 PM -7.6 °F - -11.2 °F 84% 30.26 in 10.0 mi Calm Calm - N/A   Mostly Cloudy
7:54 PM -6.9 °F - -10.7 °F 84% 30.26 in 10.0 mi Calm Calm - N/A   Mostly Cloudy
8:14 PM -6.7 °F - -10.5 °F 84% 30.26 in 10.0 mi Calm Calm - N/A   Scattered Clouds
8:34 PM -6.7 °F - -10.3 °F 84% 30.25 in 10.0 mi Calm Calm - N/A   Clear
8:54 PM -7.6 °F -16.5 °F -11.2 °F 84% 30.25 in 10.0 mi ESE 3.5 mph - N/A   Clear
9:14 PM -7.8 °F - -11.4 °F 84% 30.25 in 10.0 mi Calm Calm - N/A   Mostly Cloudy
9:34 PM -8.5 °F - -12.5 °F 83% 30.23 in 10.0 mi Calm Calm - N/A   Mostly Cloudy
9:54 PM -8.9 °F - -13.2 °F 81% 30.23 in 10.0 mi Calm Calm - N/A   Overcast
10:14 PM -8.9 °F - -13.0 °F 82% 30.22 in 10.0 mi Calm Calm - N/A   Overcast
10:34 PM -8.9 °F - -13.0 °F 82% 30.22 in 10.0 mi Calm Calm - N/A   Overcast
10:54 PM -8.5 °F - -12.6 °F 82% 30.21 in 10.0 mi Calm Calm - N/A   Overcast
11:14 PM -9.0 °F - -13.2 °F 82% 30.20 in 10.0 mi Calm Calm - N/A   Overcast
11:34 PM -8.9 °F - -13.4 °F 81% 30.19 in 10.0 mi Calm Calm - N/A   Overcast
11:54 PM -9.0 °F - -13.2 °F 82% 30.18 in 10.0 mi Calm Calm - N/A   Mostly Cloudy